Weather in Przhevalskoe

Russia / Smolensk Oblast     55°30′25″N   31°51′01″E
temp.,
°C
wind,
m/s
gust,
m/s
humid.,
%
clouds,
%
prec.,
mm/h
press.,
hPa
HPBL,
m
19 april, mon
mon1900:00+6ne11865 0.0 102217
03:00+5nne24885 0.0 102373
06:00+4ne29865 0.0 1023200
09:00+8ne376864 0.0 1022476
12:00+12ene475582 0.1 10221666
15:00+11ene4659100 0.4 10221488
18:00+9ene4870100 0.3 1022899
21:00+7ene497781 0.3 1022557
20 april, tue
tue2000:00+7ene4974100 0.0 1021717
03:00+6ene3876100 0.0 1020660
06:00+4ene4977100 0.0 1019705
09:00+3ene4894100 0.1 1019634
12:00+3ene3897100 0.2 1018494
15:00+3ene3897100 0.3 1017570
18:00+3ene3896100 0.1 1015605
21:00+4ne3890100 0.2 1013616
21 april, wed
wed2100:00+2ne2696100 0.0 1011221
03:00+2n2594100 0.0 1009430
06:00+2nw3794100 0.0 1007499
09:00+3nw3788100 0.0 1006594
12:00+6wnw4772100 0.1 10051148
15:00+6wsw4777100 0.4 10051008
18:00+7wsw477581 0.5 10061028
21:00+3ssw3108685 0.5 1007279
22 april, thu
thu2200:00+5ssw3108574 0.2 1007366
03:00+3ssw2697100 0.3 1008134
06:00+2ssw2596100 0.0 1009103
09:00+8ssw36755 0.0 1010399
12:00+12sw475660 0.4 10101564
15:00+13ssw3555100 0.5 10111478
18:00+12s367069 0.9 1011859
21:00+7ssw27905 1.2 1012140
23 april, fri
fri2300:00+6ssw2393100 0.0 101353
03:00+5sse3109330 0.0 1012202
06:00+7sse5158798 0.0 1010608
09:00+7sw4892100 0.1 1010934
12:00+4wnw3695100 0.7 1011523
15:00+2wsw3698100 3.6 1012356
18:00+4sw2487100 1.5 1012550
21:00+4sse3890100 1.6 1011325